| time (UTC) | temp C | wind direction | speed KPH | gust KPH | rain 1hr cm | rain 24hr cm | rain mn cm | humidity % | barometer mb |
| 20260510120020 | 20 | 196 | 0.0 | 0.0 | 0.00 | 0.08 | 0.00 | 86 | 1010.0 |
| 20260510114509 | 20 | 209 | 1.6 | 4.8 | 0.00 | 0.08 | 0.00 | 86 | 1010.0 |
| 20260510113024 | 20 | 212 | 0.0 | 4.8 | 0.00 | 0.08 | 0.00 | 85 | 1010.0 |
| 20260510111516 | 21 | 184 | 0.0 | 4.8 | 0.00 | 0.08 | 0.00 | 85 | 1009.8 |
| 20260510110107 | 20 | 209 | 1.6 | 8.0 | 0.00 | 0.08 | 0.00 | 85 | 1009.9 |
| 20260510104522 | 21 | 178 | 0.0 | 6.4 | 0.00 | 0.08 | 0.00 | 85 | 1010.0 |
| 20260510103012 | 21 | 204 | 1.6 | 6.4 | 0.00 | 0.08 | 0.00 | 85 | 1010.0 |
| 20260510101536 | 21 | 210 | 1.6 | 4.8 | 0.00 | 0.08 | 0.00 | 85 | 1010.1 |
| 20260510100020 | 21 | 171 | 0.0 | 0.0 | 0.00 | 0.08 | 0.00 | 84 | 1010.3 |
| 20260510094507 | 21 | 171 | 0.0 | 0.0 | 0.00 | 0.08 | 0.00 | 83 | 1010.3 |
| 20260510093031 | 21 | 152 | 0.0 | 9.7 | 0.00 | 0.08 | 0.00 | 81 | 1010.0 |
| 20260510091508 | 22 | 189 | 1.6 | 6.4 | 0.00 | 0.08 | 0.00 | 79 | 1009.8 |
| 20260510090036 | 22 | 202 | 1.6 | 4.8 | 0.00 | 0.08 | 0.00 | 79 | 1009.9 |
| 20260510084527 | 22 | 169 | 0.0 | 4.8 | 0.00 | 0.08 | 0.00 | 80 | 1009.8 |
| 20260510083005 | 22 | 193 | 0.0 | 6.4 | 0.00 | 0.08 | 0.00 | 79 | 1009.9 |
| 20260510081526 | 22 | 181 | 0.0 | 3.2 | 0.00 | 0.08 | 0.00 | 79 | 1009.8 |
| 20260510080017 | 22 | 182 | 0.0 | 6.4 | 0.00 | 0.08 | 0.00 | 78 | 1009.8 |
| 20260510074530 | 23 | 183 | 0.0 | 4.8 | 0.00 | 0.08 | 0.00 | 75 | 1009.7 |
| 20260510073022 | 23 | 185 | 0.0 | 6.4 | 0.00 | 0.08 | 0.00 | 76 | 1009.6 |
| 20260510071508 | 23 | 208 | 1.6 | 6.4 | 0.00 | 0.08 | 0.00 | 77 | 1009.6 |
| 20260510070025 | 23 | 192 | 3.2 | 9.7 | 0.00 | 0.08 | 0.00 | 76 | 1009.7 |
| 20260510064514 | 23 | 210 | 4.8 | 12.9 | 0.00 | 0.08 | 0.00 | 76 | 1009.6 |
| 20260510063004 | 23 | 166 | 3.2 | 8.0 | 0.00 | 0.08 | 0.00 | 77 | 1009.7 |
| 20260510061535 | 25 | 165 | 0.0 | 3.2 | 0.00 | 0.08 | 0.00 | 75 | 1009.7 |
| 20260510060011 | 24 | 168 | 0.0 | 4.8 | 0.00 | 0.08 | 0.00 | 78 | 1009.7 |
| 20260510054530 | 23 | 181 | 0.0 | 3.2 | 0.00 | 0.08 | 0.00 | 79 | 1009.7 |
| 20260510053016 | 24 | 139 | 0.0 | 4.8 | 0.00 | 0.08 | 0.00 | 77 | 1009.8 |
| 20260510051502 | 25 | 153 | 0.0 | 4.8 | 0.00 | 0.08 | 0.00 | 75 | 1009.5 |
| 20260510050020 | 25 | 174 | 0.0 | 6.4 | 0.00 | 0.08 | 0.00 | 76 | 1009.3 |
| 20260510044510 | 25 | 186 | 1.6 | 9.7 | 0.00 | 0.08 | 0.08 | 75 | 1009.0 |
| 20260510043028 | 26 | 178 | 0.0 | 0.0 | 0.00 | 0.08 | 0.08 | 74 | 1009.2 |
| 20260510041517 | 25 | 112 | 0.0 | 0.0 | 0.00 | 0.08 | 0.08 | 75 | 1009.1 |
| 20260510040005 | 25 | 136 | 0.0 | 1.6 | 0.00 | 0.08 | 0.08 | 75 | 1009.0 |
| 20260510034526 | 25 | 139 | 0.0 | 0.0 | 0.00 | 0.08 | 0.08 | 75 | 1008.8 |
| 20260510033015 | 26 | 144 | 0.0 | 0.0 | 0.00 | 0.08 | 0.08 | 72 | 1008.8 |
| 20260510031508 | 26 | 148 | 0.0 | 1.6 | 0.00 | 0.08 | 0.08 | 71 | 1008.4 |
| 20260510030025 | 26 | 159 | 0.0 | 0.0 | 0.00 | 0.08 | 0.08 | 72 | 1008.4 |
| 20260510024527 | 27 | 156 | 0.0 | 1.6 | 0.00 | 0.08 | 0.08 | 69 | 1008.2 |
| 20260510023004 | 27 | 141 | 0.0 | 1.6 | 0.00 | 0.08 | 0.08 | 70 | 1008.1 |
| 20260510021525 | 27 | 146 | 0.0 | 1.6 | 0.00 | 0.08 | 0.08 | 67 | 1008.0 |
| 20260510020014 | 28 | 126 | 0.0 | 4.8 | 0.00 | 0.08 | 0.08 | 65 | 1007.8 |
| 20260510014503 | 28 | 139 | 0.0 | 4.8 | 0.00 | 0.08 | 0.08 | 64 | 1007.6 |
| 20260510013022 | 28 | 131 | 0.0 | 6.4 | 0.00 | 0.08 | 0.08 | 64 | 1007.3 |
| 20260510011510 | 28 | 125 | 1.6 | 4.8 | 0.00 | 0.08 | 0.08 | 61 | 1007.2 |
| 20260510010031 | 30 | 129 | 0.0 | 8.0 | 0.00 | 0.08 | 0.08 | 57 | 1007.0 |
| 20260510004519 | 29 | 91 | 4.8 | 14.5 | 0.00 | 0.08 | 0.08 | 57 | 1006.9 |
| 20260510003021 | 30 | 114 | 3.2 | 11.3 | 0.00 | 0.08 | 0.08 | 56 | 1006.7 |
| 20260510001530 | 31 | 144 | 0.0 | 4.8 | 0.00 | 0.08 | 0.08 | 50 | 1006.6 |
| 20260510000015 | 31 | 153 | 0.0 | 8.0 | 0.00 | 0.08 | 0.08 | 52 | 1006.4 |
| 20260509234515 | 31 | 108 | 1.6 | 11.3 | 0.00 | 0.08 | 0.08 | 53 | 1006.2 |
| 20260509233024 | 32 | 212 | 3.2 | 12.9 | 0.00 | 0.08 | 0.08 | 51 | 1005.9 |
| 20260509231516 | 32 | 217 | 1.6 | 11.3 | 0.00 | 0.08 | 0.08 | 51 | 1006.1 |
| 20260509230002 | 32 | 137 | 1.6 | 8.0 | 0.00 | 0.08 | 0.08 | 49 | 1006.7 |
| 20260509224525 | 32 | 160 | 1.6 | 4.8 | 0.00 | 0.08 | 0.08 | 52 | 1006.6 |
| 20260509223011 | 32 | 141 | 3.2 | 12.9 | 0.00 | 0.08 | 0.08 | 52 | 1006.4 |
| 20260509220020 | 33 | 245 | 0.0 | 8.0 | 0.00 | 0.08 | 0.08 | 49 | 1006.3 |
| 20260509214509 | 32 | 313 | 3.2 | 11.3 | 0.00 | 0.08 | 0.08 | 50 | 1006.5 |
| 20260509213027 | 33 | 150 | 4.8 | 14.5 | 0.00 | 0.08 | 0.08 | 48 | 1006.6 |
| 20260509211514 | 32 | 218 | 1.6 | 12.9 | 0.00 | 0.08 | 0.08 | 50 | 1006.6 |
| 20260509210007 | 33 | 192 | 3.2 | 14.5 | 0.00 | 0.08 | 0.08 | 49 | 1006.9 |
| 20260509204520 | 33 | 254 | 1.6 | 12.9 | 0.00 | 0.08 | 0.08 | 48 | 1007.1 |
| 20260509203009 | 32 | 204 | 3.2 | 14.5 | 0.00 | 0.08 | 0.08 | 50 | 1007.3 |
| 20260509201528 | 33 | 133 | 4.8 | 11.3 | 0.00 | 0.08 | 0.08 | 48 | 1007.6 |
| 20260509200021 | 32 | 208 | 3.2 | 14.5 | 0.00 | 0.08 | 0.08 | 53 | 1007.8 |
| 20260509194509 | 32 | 225 | 1.6 | 9.7 | 0.00 | 0.08 | 0.08 | 54 | 1008.2 |
| 20260509193022 | 31 | 210 | 1.6 | 8.0 | 0.00 | 0.08 | 0.08 | 55 | 1008.5 |
| 20260509191511 | 32 | 124 | 0.0 | 11.3 | 0.00 | 0.08 | 0.08 | 56 | 1008.7 |
| 20260509190031 | 32 | 189 | 3.2 | 12.9 | 0.00 | 0.08 | 0.08 | 55 | 1008.8 |
| 20260509184517 | 31 | 248 | 3.2 | 11.3 | 0.00 | 0.08 | 0.08 | 59 | 1008.9 |
| 20260509183016 | 31 | 293 | 6.4 | 11.3 | 0.00 | 0.08 | 0.08 | 60 | 1009.1 |
| 20260509181537 | 31 | 310 | 3.2 | 12.9 | 0.00 | 0.08 | 0.08 | 60 | 1009.2 |
| 20260509180009 | 30 | 301 | 4.8 | 9.7 | 0.00 | 0.08 | 0.08 | 63 | 1009.3 |
| 20260509174531 | 30 | 232 | 4.8 | 14.5 | 0.00 | 0.08 | 0.08 | 66 | 1009.5 |
| 20260509173023 | 28 | 346 | 3.2 | 12.9 | 0.00 | 0.08 | 0.08 | 68 | 1009.7 |
| 20260509171504 | 28 | 254 | 3.2 | 16.1 | 0.00 | 0.08 | 0.08 | 69 | 1009.9 |
| 20260509170020 | 28 | 241 | 0.0 | 9.7 | 0.00 | 0.08 | 0.08 | 75 | 1009.9 |
| 20260509164510 | 27 | 285 | 3.2 | 11.3 | 0.00 | 0.08 | 0.08 | 75 | 1010.0 |
| 20260509163030 | 27 | 298 | 3.2 | 12.9 | 0.00 | 0.08 | 0.08 | 78 | 1010.0 |
| 20260509161511 | 26 | 290 | 3.2 | 19.3 | 0.00 | 0.08 | 0.08 | 79 | 1009.8 |
| 20260509160027 | 25 | 288 | 1.6 | 11.3 | 0.00 | 0.08 | 0.08 | 85 | 1009.8 |
| 20260509154512 | 24 | 196 | 1.6 | 8.0 | 0.00 | 0.08 | 0.08 | 84 | 1010.0 |
| 20260509153031 | 23 | 281 | 3.2 | 8.0 | 0.08 | 0.08 | 0.08 | 85 | 1010.4 |
| 20260509151518 | 22 | 225 | 0.0 | 3.2 | 0.08 | 0.08 | 0.08 | 86 | 1010.7 |
| 20260509150012 | 22 | 290 | 1.6 | 4.8 | 0.08 | 0.08 | 0.08 | 85 | 1010.8 |
| 20260509144534 | 22 | 101 | 0.0 | 0.0 | 0.08 | 0.08 | 0.08 | 85 | 1010.7 |
| 20260509143014 | 22 | 111 | 0.0 | 0.0 | 0.00 | 0.00 | 0.00 | 86 | 1010.8 |
| 20260509141502 | 22 | 112 | 0.0 | 0.0 | 0.00 | 0.00 | 0.00 | 86 | 1010.9 |
| 20260509140021 | 22 | 91 | 0.0 | 0.0 | 0.00 | 0.00 | 0.00 | 86 | 1010.6 |
| 20260509134508 | 22 | 342 | 0.0 | 6.4 | 0.00 | 0.00 | 0.00 | 86 | 1009.5 |
| 20260509133030 | 22 | 16 | 0.0 | 3.2 | 0.00 | 0.00 | 0.00 | 86 | 1009.1 |
| 20260509131519 | 22 | 161 | 0.0 | 4.8 | 0.00 | 0.00 | 0.00 | 86 | 1009.4 |
| 20260509130008 | 22 | 168 | 0.0 | 3.2 | 0.00 | 0.00 | 0.00 | 86 | 1009.9 |
| 20260509124527 | 22 | 94 | 1.6 | 8.0 | 0.00 | 0.00 | 0.00 | 86 | 1010.2 |
| 20260509123015 | 22 | 70 | 1.6 | 8.0 | 0.00 | 0.00 | 0.00 | 86 | 1010.2 |
| 20260509121606 | 22 | 50 | 3.2 | 8.0 | 0.00 | 0.00 | 0.00 | 86 | 1010.3 |